DLH58V EDDF-KDEN

Flight info

Callsign DLH58V
Flight time N/A
Altitude 34000
Route OBOKA3M/25C OBOKA Z28 DIBIR DCT BUDIP DCT MIMVA DCT GETNO DCT NIBOG DCT PIKIL/M084F350 NATA URTAK/N0495F360 DCT LAKES DCT 5630N07000W 5330N08000W 4930N09000W/N0490F380 DCT KP84A DCT NYTRO AALLE3
Aircraft A346/H-SDE2E3FGHIJ3J4J5M1RWXY/LB1D1

Departure

Time 2026-05-06 09:14
Airport Frankfurt Main Airport (EDDF)

Arrival

Time N/A
Airport Denver International Airport (KDEN)
Time Latitude Longitude Altitude Speed Heading
2026-05-06 08:20 50.04768 8.56501 370 ft 0 kts 340°
2026-05-06 08:30 50.04774 8.56497 364 ft 0 kts 340°
2026-05-06 08:35 50.04768 8.56501 363 ft 9 kts 339°
2026-05-06 08:59 50.04759 8.56506 364 ft 3 kts 338°
2026-05-06 09:02 50.04677 8.56557 364 ft 0 kts 338°
2026-05-06 09:03 50.04677 8.56556 364 ft 0 kts 338°
2026-05-06 09:03 50.04680 8.56555 364 ft 1 kts 338°
2026-05-06 09:04 50.04683 8.56553 364 ft 0 kts 338°
2026-05-06 09:05 50.04684 8.56552 364 ft 1 kts 334°
2026-05-06 09:05 50.04687 8.56524 370 ft 6 kts 260°
2026-05-06 09:05 50.04666 8.56433 368 ft 10 kts 250°
2026-05-06 09:05 50.04640 8.56321 367 ft 12 kts 249°
2026-05-06 09:06 50.04610 8.56195 369 ft 13 kts 249°
2026-05-06 09:06 50.04580 8.56074 369 ft 14 kts 249°
2026-05-06 09:06 50.04537 8.55973 368 ft 14 kts 216°
2026-05-06 09:06 50.04464 8.55976 366 ft 14 kts 155°
2026-05-06 09:07 50.04452 8.55985 371 ft 2 kts 155°
2026-05-06 09:07 50.04404 8.56018 371 ft 13 kts 157°
2026-05-06 09:07 50.04329 8.56064 368 ft 14 kts 155°
2026-05-06 09:07 50.04297 8.56170 369 ft 14 kts 96°
2026-05-06 09:08 50.04256 8.56255 369 ft 13 kts 160°
2026-05-06 09:08 50.04187 8.56302 369 ft 14 kts 150°
2026-05-06 09:08 50.04161 8.56405 366 ft 14 kts 83°
2026-05-06 09:08 50.04192 8.56551 367 ft 19 kts 70°
2026-05-06 09:09 50.04230 8.56709 369 ft 18 kts 70°
2026-05-06 09:09 50.04264 8.56855 372 ft 18 kts 70°
2026-05-06 09:09 50.04300 8.57003 373 ft 18 kts 69°
2026-05-06 09:09 50.04339 8.57168 373 ft 25 kts 69°
2026-05-06 09:10 50.04393 8.57390 373 ft 27 kts 69°
2026-05-06 09:10 50.04447 8.57620 375 ft 26 kts 70°
2026-05-06 09:10 50.04500 8.57842 374 ft 27 kts 70°
2026-05-06 09:10 50.04555 8.58074 375 ft 28 kts 70°
2026-05-06 09:11 50.04613 8.58315 380 ft 27 kts 68°
2026-05-06 09:11 50.04644 8.58516 380 ft 20 kts 110°
2026-05-06 09:11 50.04555 8.58612 381 ft 18 kts 156°
2026-05-06 09:11 50.04490 8.58595 382 ft 12 kts 235°
2026-05-06 09:12 50.04478 8.58554 383 ft 0 kts 250°
2026-05-06 09:12 50.04474 8.58538 383 ft 11 kts 250°
2026-05-06 09:12 50.04411 8.58278 380 ft 54 kts 249°
2026-05-06 09:12 50.04257 8.57630 373 ft 96 kts 249°
2026-05-06 09:13 50.04026 8.56659 367 ft 132 kts 249°
2026-05-06 09:13 50.03731 8.55429 357 ft 163 kts 250°
2026-05-06 09:13 50.03389 8.53926 405 ft 182 kts 248°
2026-05-06 09:13 50.03048 8.52372 802 ft 178 kts 248°
2026-05-06 09:14 50.02716 8.50891 1224 ft 174 kts 246°
2026-05-06 09:14 50.02245 8.49545 1697 ft 168 kts 228°
2026-05-06 09:14 50.01466 8.48619 2056 ft 170 kts 202°
2026-05-06 09:14 50.00543 8.48250 2236 ft 180 kts 194°
2026-05-06 09:15 49.99651 8.47980 2385 ft 188 kts 192°
2026-05-06 09:15 49.98935 8.47804 2549 ft 192 kts 191°
2026-05-06 09:15 49.97786 8.47507 2865 ft 197 kts 193°
2026-05-06 09:15 49.96539 8.47104 3264 ft 199 kts 196°
2026-05-06 09:16 49.95331 8.46638 3627 ft 204 kts 197°
2026-05-06 09:16 49.93983 8.46067 3868 ft 215 kts 198°
2026-05-06 09:16 49.92504 8.45395 4080 ft 228 kts 203°
2026-05-06 09:16 49.91142 8.44037 4373 ft 235 kts 230°
2026-05-06 09:17 49.90225 8.41967 4842 ft 243 kts 239°
2026-05-06 09:17 49.89670 8.40499 5041 ft 252 kts 240°